AirNav   TITAN Aviation Fuels
 
 1535 users online  

96MO Riverlands Area Heliport
West Alton, Missouri, USA

GOING TO WEST ALTON?


FAA INFORMATION EFFECTIVE 07 OCTOBER 2021

Location

FAA Identifier: 96MO
Lat/Long: 38-51-47.1740N 090-09-25.3910W
38-51.786233N 090-09.423183W
38.8631039,-90.1570531
(estimated)
Elevation: 434 ft. / 132 m (estimated)
Variation: 02E (1985)
From city: 4 miles E of WEST ALTON, MO
Time zone: UTC -5 (UTC -6 during Standard Time)
Zip code: 63386

Heliport Operations

Heliport use: Private use. Permission required prior to landing
Activation date: 03/1984
Control tower: no
ARTCC: KANSAS CITY CENTER
FSS: SAINT LOUIS FLIGHT SERVICE STATION
Attendance: UNATNDD
Segmented circle: no

Heliport Communications

WX AWOS-3 at ALN (5 nm E): 128.0 (618-259-7231)
WX ASOS at STL (12 nm SW): PHONE 314-890-4790
WX ASOS at SET (13 nm W): 118.075 (636-250-4590)
WX ASOS at CPS (18 nm S): PHONE 618-332-0001

Nearby radio navigation aids

VOR radial/distance  VOR name  Freq  Var
TOYr300/13.4TROY VORTAC116.0004E
STLr088/15.2ST LOUIS VORTAC117.4001E
FTZr070/39.4FORISTELL VORTAC110.8005E

 
NDB name  Hdg/Dist  Freq  Var  ID
CIVIC MEMORIAL251/5.026301WCVM -.-. ...- --

Heliport Services

Runway Information

Helipad H1

Dimensions: 100 x 100 ft. / 30 x 30 m
Surface: turf
Latitude: 38-51.786167N
Longitude: 090-09.423167W
Elevation: 434.0 ft.
Traffic pattern: leftleft

Heliport Ownership and Management from official FAA records

Ownership: Publicly-owned
Owner: CORPS OF ENGINEERS
P O BOX 337
WEST ALTON, MO 63386-0337
Phone 573-355-6505
Manager: PATRICK MC GINNIS
PO BOX 337
WEST ALTON, MO 63386
Phone 314-899-0405

Additional Remarks

A52 145' TWR LGTD 150' SW OF PAD.
FOR CD CTC ST LOUIS APCH AT 314-890-1018.

Instrument Procedures

There are no published instrument procedures at 96MO.

Some nearby airports with instrument procedures:

KALN - St Louis Regional Airport (5 nm E)
KSTL - St Louis Lambert International Airport (12 nm SW)
KSET - St Charles County Smartt Airport (13 nm W)
KCPS - St Louis Downtown Airport (18 nm S)
1H0 - Creve Coeur Airport (18 nm SW)
 
Loc | Ops | Rwys | IFR | FBO | Links
Com | Nav | Svcs | Stats | Notes
Area around 96MO (Riverlands Area Heliport)
 
Road maps at: MapQuest Bing Google
 
Aerial photo
No photo
 
Sectional chart

 
Airport distance calculator
Flying to Riverlands Area Heliport? Find the distance to fly.

From to 96MO

Sunrise and sunset
Times for 21-Oct-2021
 Local
(UTC-5)
 Zulu
(UTC)
Morning civil twilight06:5011:50
Sunrise07:1712:17
Sunset18:1323:13
Evening civil twilight18:4123:41

Current date and time
Zulu (UTC)  21-Oct-2021 16:11:07
Local (UTC-5)  21-Oct-2021 11:11:07
 
METAR
KALN 
6nm E 
211547Z 29013KT 10SM OVC023 10/05 A3008
KSTL 
12nm SW 
211551Z 28014G23KT 10SM OVC022 11/05 A3008 RMK AO2 SLP183 T01110050
KSET 
14nm W 
211554Z AUTO 28013G24KT 10SM BKN026 12/04 A3007 RMK AO2 SLP182 T01220044
KCPS 
18nm S 
211553Z 29012G19KT 10SM OVC025 11/06 A3009 RMK AO2 SLP188 T01060056
TAF
KSTL 
12nm SW 
211132Z 2112/2218 27012G18KT P6SM SCT025 TEMPO 2113/2115 BKN025 FM211500 29014G22KT P6SM BKN025 FM220000 31008KT P6SM BKN030 FM220900 30005KT P6SM BKN025
KCPS 
18nm S 
211311Z 2113/2212 27011G17KT P6SM SCT025 FM211500 29014G22KT P6SM BKN025 FM220000 31008KT P6SM BKN030 FM220900 30005KT P6SM BKN025
NOTAMs
Click for the latest NOTAMs
NOTAMs are issued by the DoD/FAA and will open in a separate window not controlled by AirNav.

 

 
 

Would you like to see your business listed on this page?

 If your business provides an interesting product or service to pilots, flight crews, aircraft, or users of the Riverlands Area Heliport, you should consider listing it here.  To start the listing process, click on the button below
 
Add a business
 

Other Pages about Riverlands Area Heliport

Update a link
 
Copyright © AirNav, LLC. All rights reserved. Privacy Policy  Contact